Time,TemperatureF,DewpointF,PressureIn,WindDirection,WindDirectionDegrees,WindSpeedMPH,WindSpeedGustMPH,Humidity,HourlyPrecipIn,Conditions,Clouds,dailyrainin,SolarRadiationWatts/m^2,SoftwareType,DateUTC
2013-04-28 00:03:00,57.0,-99.9,-100.00,SE,136,4.0,7.0,36,0.00,,,0.00,0.000000,,2013-04-28 04:03:00,
2013-04-28 00:32:00,54.0,31.0,-100.00,SE,143,3.0,5.0,42,0.00,,,0.00,0.000000,,2013-04-28 04:32:00,
2013-04-28 00:43:00,54.0,31.0,-100.00,SE,143,3.0,5.0,42,0.00,,,0.00,0.000000,,2013-04-28 04:43:00,
2013-04-28 00:53:00,54.0,31.0,-100.00,SE,143,3.0,5.0,42,0.00,,,0.00,0.000000,,2013-04-28 04:53:00,
2013-04-28 01:02:00,54.0,31.0,-100.00,SE,143,3.0,5.0,42,0.00,,,0.00,0.000000,,2013-04-28 05:02:00,
2013-04-28 01:32:00,54.0,33.0,-100.00,SSE,150,4.0,5.0,45,0.00,,,0.00,0.000000,,2013-04-28 05:32:00,
2013-04-28 01:42:00,54.0,33.0,-100.00,SSE,150,4.0,5.0,45,0.00,,,0.00,0.000000,,2013-04-28 05:42:00,
2013-04-28 01:52:00,54.0,33.0,-100.00,SSE,150,4.0,5.0,45,0.00,,,0.00,0.000000,,2013-04-28 05:52:00,
2013-04-28 02:01:00,54.0,33.0,-100.00,SSE,150,4.0,5.0,45,0.00,,,0.00,0.000000,,2013-04-28 06:01:00,
2013-04-28 02:32:00,51.0,34.0,-100.00,SE,130,3.0,5.0,52,0.00,,,0.00,0.000000,,2013-04-28 06:32:00,
2013-04-28 02:42:00,51.0,34.0,-100.00,SE,130,3.0,5.0,52,0.00,,,0.00,0.000000,,2013-04-28 06:42:00,
2013-04-28 02:52:00,51.0,34.0,-100.00,SE,130,3.0,5.0,52,0.00,,,0.00,0.000000,,2013-04-28 06:52:00,
2013-04-28 03:02:00,51.0,34.0,-100.00,SE,130,3.0,5.0,52,0.00,,,0.00,0.000000,,2013-04-28 07:02:00,
2013-04-28 03:32:00,50.0,34.0,-100.00,SE,126,4.0,6.0,55,0.00,,,0.00,0.000000,,2013-04-28 07:32:00,
2013-04-28 03:42:00,50.0,34.0,-100.00,SE,126,4.0,6.0,55,0.00,,,0.00,0.000000,,2013-04-28 07:42:00,
2013-04-28 03:52:00,50.0,34.0,-100.00,SE,126,4.0,6.0,55,0.00,,,0.00,0.000000,,2013-04-28 07:52:00,
2013-04-28 04:02:00,50.0,34.0,-100.00,SE,126,4.0,6.0,55,0.00,,,0.00,0.000000,,2013-04-28 08:02:00,
2013-04-28 04:32:00,49.0,35.0,-100.00,ESE,115,3.0,6.0,59,0.00,,,0.00,0.000000,,2013-04-28 08:32:00,
2013-04-28 04:42:00,49.0,35.0,-100.00,ESE,115,3.0,6.0,59,0.00,,,0.00,0.000000,,2013-04-28 08:42:00,
2013-04-28 04:52:00,49.0,35.0,-100.00,ESE,115,3.0,6.0,59,0.00,,,0.00,0.000000,,2013-04-28 08:52:00,
2013-04-28 05:01:00,49.0,35.0,-100.00,ESE,115,3.0,6.0,59,0.00,,,0.00,0.000000,,2013-04-28 09:01:00,
2013-04-28 05:33:00,47.0,35.0,-100.00,East,101,3.0,4.0,62,0.00,,,0.00,0.000000,,2013-04-28 09:33:00,
2013-04-28 05:42:00,47.0,35.0,-100.00,East,101,3.0,4.0,62,0.00,,,0.00,0.000000,,2013-04-28 09:42:00,
2013-04-28 05:53:00,47.0,35.0,-100.00,East,101,3.0,4.0,62,0.00,,,0.00,0.000000,,2013-04-28 09:53:00,
2013-04-28 06:03:00,47.0,35.0,-100.00,East,101,3.0,4.0,62,0.00,,,0.00,0.000000,,2013-04-28 10:03:00,
2013-04-28 06:32:00,46.0,35.0,-100.00,East,88,2.0,3.0,66,0.00,,,0.00,0.000000,,2013-04-28 10:32:00,
2013-04-28 06:42:00,46.0,35.0,-100.00,East,88,2.0,3.0,66,0.00,,,0.00,0.000000,,2013-04-28 10:42:00,
2013-04-28 06:53:00,46.0,35.0,-100.00,East,88,2.0,3.0,66,0.00,,,0.00,0.000000,,2013-04-28 10:53:00,
2013-04-28 07:02:00,46.0,35.0,-100.00,East,88,2.0,3.0,66,0.00,,,0.00,0.000000,,2013-04-28 11:02:00,
2013-04-28 07:32:00,48.0,36.0,-100.00,ESE,104,3.0,5.0,64,0.00,,,-99.99,34.000000,,2013-04-28 11:32:00,
2013-04-28 07:42:00,48.0,36.0,-100.00,ESE,104,3.0,5.0,64,0.00,,,-99.99,34.000000,,2013-04-28 11:42:00,
2013-04-28 07:52:00,48.0,36.0,-100.00,ESE,104,3.0,5.0,64,0.00,,,-99.99,34.000000,,2013-04-28 11:52:00,
2013-04-28 08:02:00,48.0,36.0,-100.00,ESE,104,3.0,5.0,64,0.00,,,-99.99,34.000000,,2013-04-28 12:02:00,
2013-04-28 08:32:00,54.0,38.0,-100.00,ESE,112,4.0,6.0,54,0.00,,,0.00,168.000000,,2013-04-28 12:32:00,
2013-04-28 08:42:00,54.0,38.0,-100.00,ESE,112,4.0,6.0,54,0.00,,,0.00,168.000000,,2013-04-28 12:42:00,
2013-04-28 08:52:00,54.0,38.0,-100.00,ESE,112,4.0,6.0,54,0.00,,,0.00,168.000000,,2013-04-28 12:52:00,
2013-04-28 09:02:00,54.0,38.0,-100.00,ESE,112,4.0,6.0,54,0.00,,,0.00,168.000000,,2013-04-28 13:02:00,
2013-04-28 09:32:00,57.0,39.0,-100.00,ESE,111,5.0,8.0,50,0.00,,,0.00,284.000000,,2013-04-28 13:32:00,
2013-04-28 09:42:00,57.0,39.0,-100.00,ESE,111,5.0,8.0,50,0.00,,,0.00,284.000000,,2013-04-28 13:42:00,
2013-04-28 09:52:00,57.0,39.0,-100.00,ESE,111,5.0,8.0,50,0.00,,,0.00,284.000000,,2013-04-28 13:52:00,
2013-04-28 10:02:00,57.0,39.0,-100.00,ESE,111,5.0,8.0,50,0.00,,,0.00,284.000000,,2013-04-28 14:02:00,
2013-04-28 10:32:00,61.0,41.0,-100.00,SE,138,8.0,16.0,47,0.00,,,0.00,403.000000,,2013-04-28 14:32:00,
2013-04-28 10:42:00,61.0,41.0,-100.00,SE,138,8.0,16.0,47,0.00,,,0.00,403.000000,,2013-04-28 14:42:00,
2013-04-28 10:52:00,61.0,41.0,-100.00,SE,138,8.0,16.0,47,0.00,,,0.00,403.000000,,2013-04-28 14:52:00,
2013-04-28 11:02:00,61.0,41.0,-100.00,SE,138,8.0,16.0,47,0.00,,,0.00,403.000000,,2013-04-28 15:02:00,
2013-04-28 11:33:00,60.0,39.0,-100.00,SE,137,11.0,21.0,46,0.00,,,0.00,368.000000,,2013-04-28 15:33:00,
2013-04-28 11:43:00,60.0,39.0,-100.00,SE,137,11.0,21.0,46,0.00,,,0.00,368.000000,,2013-04-28 15:43:00,
2013-04-28 11:53:00,60.0,39.0,-100.00,SE,137,11.0,21.0,46,0.00,,,0.00,368.000000,,2013-04-28 15:53:00,
2013-04-28 12:03:00,60.0,39.0,-100.00,SE,137,11.0,21.0,46,0.00,,,0.00,368.000000,,2013-04-28 16:03:00,
2013-04-28 12:33:00,62.0,40.0,-100.00,SE,136,11.0,24.0,44,0.00,,,0.00,396.000000,,2013-04-28 16:33:00,
2013-04-28 12:43:00,62.0,40.0,-100.00,SE,136,11.0,24.0,44,0.00,,,0.00,396.000000,,2013-04-28 16:43:00,
2013-04-28 12:52:00,62.0,40.0,-100.00,SE,136,11.0,24.0,44,0.00,,,0.00,396.000000,,2013-04-28 16:52:00,
2013-04-28 13:02:00,62.0,40.0,-100.00,SE,136,11.0,24.0,44,0.00,,,0.00,396.000000,,2013-04-28 17:02:00,
2013-04-28 13:32:00,58.0,41.0,-100.00,SSE,152,14.0,21.0,53,0.00,,,0.00,206.000000,,2013-04-28 17:32:00,
2013-04-28 13:43:00,58.0,41.0,-100.00,SSE,152,14.0,21.0,53,0.00,,,0.00,206.000000,,2013-04-28 17:43:00,
2013-04-28 13:52:00,58.0,41.0,-100.00,SSE,152,14.0,21.0,53,0.00,,,0.00,206.000000,,2013-04-28 17:52:00,
2013-04-28 14:02:00,58.0,41.0,-100.00,SSE,152,14.0,21.0,53,0.00,,,0.00,206.000000,,2013-04-28 18:02:00,
2013-04-28 14:32:00,54.0,45.0,-100.00,SE,145,7.0,17.0,72,0.00,,,0.00,146.000000,,2013-04-28 18:32:00,
2013-04-28 14:42:00,54.0,45.0,-100.00,SE,145,7.0,17.0,72,0.00,,,0.00,146.000000,,2013-04-28 18:42:00,
2013-04-28 14:52:00,54.0,45.0,-100.00,SE,145,7.0,17.0,72,0.00,,,0.00,146.000000,,2013-04-28 18:52:00,
2013-04-28 15:02:00,54.0,45.0,-100.00,SE,145,7.0,17.0,72,0.00,,,0.00,146.000000,,2013-04-28 19:02:00,
2013-04-28 15:32:00,52.0,48.0,-100.00,SE,130,7.0,16.0,86,0.03,,,0.03,101.000000,,2013-04-28 19:32:00,
2013-04-28 15:42:00,52.0,48.0,-100.00,SE,130,7.0,16.0,86,0.03,,,0.03,101.000000,,2013-04-28 19:42:00,
2013-04-28 15:52:00,52.0,48.0,-100.00,SE,130,7.0,16.0,86,0.03,,,0.03,101.000000,,2013-04-28 19:52:00,
2013-04-28 16:02:00,52.0,48.0,-100.00,SE,130,7.0,16.0,86,0.03,,,0.03,101.000000,,2013-04-28 20:02:00,
2013-04-28 16:33:00,51.0,48.0,-100.00,SE,134,9.0,14.0,88,0.03,,,0.06,112.000000,,2013-04-28 20:33:00,
2013-04-28 16:42:00,51.0,48.0,-100.00,SE,134,9.0,14.0,88,0.03,,,0.06,112.000000,,2013-04-28 20:42:00,
2013-04-28 16:52:00,51.0,48.0,-100.00,SE,134,9.0,14.0,88,0.03,,,0.06,112.000000,,2013-04-28 20:52:00,
2013-04-28 17:01:00,51.0,48.0,-100.00,SE,134,9.0,14.0,88,0.03,,,0.06,112.000000,,2013-04-28 21:01:00,
2013-04-28 17:33:00,50.0,48.0,-100.00,SE,131,7.0,12.0,92,0.05,,,0.11,61.000000,,2013-04-28 21:33:00,
2013-04-28 17:42:00,50.0,48.0,-100.00,SE,131,7.0,12.0,92,0.05,,,0.11,61.000000,,2013-04-28 21:42:00,
2013-04-28 17:53:00,50.0,48.0,-100.00,SE,131,7.0,12.0,92,0.05,,,0.11,61.000000,,2013-04-28 21:53:00,
2013-04-28 18:03:00,50.0,48.0,-100.00,SE,131,7.0,12.0,92,0.05,,,0.11,61.000000,,2013-04-28 22:03:00,
2013-04-28 18:34:00,49.0,47.0,-100.00,SE,131,9.0,20.0,93,0.04,,,0.15,44.000000,,2013-04-28 22:34:00,
2013-04-28 18:42:00,49.0,47.0,-100.00,SE,131,9.0,20.0,93,0.04,,,0.15,44.000000,,2013-04-28 22:42:00,
2013-04-28 18:52:00,49.0,47.0,-100.00,SE,131,9.0,20.0,93,0.04,,,0.15,44.000000,,2013-04-28 22:52:00,
2013-04-28 19:02:00,49.0,47.0,-100.00,SE,131,9.0,20.0,93,0.04,,,0.15,44.000000,,2013-04-28 23:02:00,
2013-04-28 19:42:00,49.0,47.0,-100.00,SE,135,8.0,18.0,92,0.00,,,0.15,16.000000,,2013-04-28 23:42:00,
2013-04-28 19:52:00,49.0,47.0,-100.00,SE,135,8.0,18.0,92,0.00,,,0.15,16.000000,,2013-04-28 23:52:00,
2013-04-28 20:01:00,49.0,47.0,-100.00,SE,135,8.0,18.0,92,0.00,,,0.15,16.000000,,2013-04-29 00:01:00,
2013-04-28 21:32:00,47.0,45.0,-100.00,SE,134,8.0,16.0,93,-99.99,,,0.23,0.000000,,2013-04-29 01:32:00,
2013-04-28 21:42:00,47.0,45.0,-100.00,SE,134,8.0,16.0,93,-99.99,,,0.23,0.000000,,2013-04-29 01:42:00,
2013-04-28 21:52:00,47.0,45.0,-100.00,SE,134,8.0,16.0,93,-99.99,,,0.23,0.000000,,2013-04-29 01:52:00,
2013-04-28 22:02:00,47.0,45.0,-100.00,SE,134,8.0,16.0,93,-99.99,,,0.23,0.000000,,2013-04-29 02:02:00,
2013-04-28 22:32:00,47.0,44.0,-100.00,SE,139,9.0,15.0,90,0.00,,,0.23,0.000000,,2013-04-29 02:32:00,
2013-04-28 22:42:00,47.0,44.0,-100.00,SE,139,9.0,15.0,90,0.00,,,0.23,0.000000,,2013-04-29 02:42:00,
2013-04-28 22:52:00,47.0,44.0,-100.00,SE,139,9.0,15.0,90,0.00,,,0.23,0.000000,,2013-04-29 02:52:00,
2013-04-28 23:01:00,47.0,44.0,-100.00,SE,139,9.0,15.0,90,0.00,,,0.23,0.000000,,2013-04-29 03:01:00,
2013-04-28 23:33:00,46.0,44.0,-100.00,SE,137,6.0,13.0,94,0.01,,,0.24,0.000000,,2013-04-29 03:33:00,
2013-04-28 23:43:00,46.0,44.0,-100.00,SE,137,6.0,13.0,94,0.01,,,0.24,0.000000,,2013-04-29 03:43:00,
2013-04-28 23:53:00,46.0,44.0,-100.00,SE,137,6.0,13.0,94,0.01,,,0.24,0.000000,,2013-04-29 03:53:00,